Tracking 19969 objects as of 13-Nov-2019
Live streaming from Space Station
objects crossing your sky now
Track the group of recently launched Starlink satellites

COSMOS 1176 COOLANT

Track COSMOS 1176 COOLANT now!
10-day predictions


NORAD ID: 27568
Int'l Code: 1980-034E
Perigee: 832.6 km
Apogee: 913.9 km
Inclination: 64.8 °
Period: 102.3 minutes
Semi major axis: 7244 km
RCS: 0.012 m2 (small)
Launch date: April 29, 1980
Source: Commonwealth of Independent States (former USSR) (CIS)
Launch site: TYURATAM MISSILE AND SPACE COMPLEX (TTMTR)

Note: This is SATELLITE DEBRIS
aabbcc
Your satellite tracking list
Your tracking list is empty




NASA's NSSDC Master Catalog

Two Line Element Set (TLE):
1 27568U 80034E   19313.30300603  .00000279  00000-0  21704-3 0  9990
2 27568  64.8209 207.1693 0056108 254.6811 104.8055 14.08038647891859
Source of the keplerian elements: AFSPC